STARLINK-36685, 68717

Orbit data source: Space-Track

STARLINK-36685, 68717 is a payload satellite owned by SpaceX/Seattle (US) in LEO that was launched on Tue, 14 Apr 2026 UTC via an FALCON 9 launch vehicle from the Air Force Eastern Test Range (AFETR). Payload-class satellites include a variety of spacecraft equipped with specific instruments for various scientific and technological missions. These include communications satellites like Starlink; space stations such as the ISS; scientific satellites like the Hubble; Earth observation satellites from companies like Planet Labs, Umbra, and HawkEye 360; GPS; miniature CubeSats for education and research; and military/defense satellites.

Loading next visibility...
Identifier
68717, 2026-081U
Orbit
LEO
Country
Flag of USUS
Related business
Manufacturer
SpaceX/Seattle
Mission
Operational spacecraft
Bus & Motor
STARLINK V2MO, Unknown motor
Mass
575 kg wet, ~530 kg dry
Launch date (UTC)
2026-04-14 (2 months ago)
Launch vehicle
FALCON 9
Launch site
Air Force Eastern Test Range (AFETR)
Object type
Payload
Rocket body
Debris
Shape & HBR
Unknown shape, 14.5 m
Radar Cross Section
Large (>1 m²)

Expand to show TLE details & history
Last TLE update: 1 day ago

TLE from 1 day ago
0 STARLINK-36685
1 68717U 26081U   26170.70825084  .00013378  00000-0  40641-3 0  9996
2 68717  53.1590 279.4206 0001270  89.4474 270.6674 15.34397825 10370
Epoch: 2026-06-19T16:59Z
TLE epoch observation values (Epoch: 2026-06-19T16:59:52.872Z)
Latitude
-0.00004°
Longitude
116.51692°
Altitude
463.601 km
Speed
7.636 km/s
True Right ascension
18h 37m 40s
True Declination
0° 00' 00"
Sunlit
Object was in full shadow at epoch
Visualization orbit readout
Latitude
Unknown
Longitude
Unknown
Altitude
Unknown
Speed
Unknown
Apparent Right ascension
Unknown
Apparent Declination
Unknown
Sunlit
N/A
Visualization observer readout
Local Sidereal Time
07:18:25
Azimuth
Unknown
Elevation
Unknown
Doppler factor
Unknown
Orbital elements
Apogee altitude
463.836 km
Perigee altitude
462.098 km
Semi-major axis
6,841.104 km
Eccentricity
0.00013
Inclination
53.159°
RAAN
279.4206°
Arg. of periapsis
89.4474°
True anomaly
270.65285°
Mean anomaly
270.6674°
Eccentric anomaly
270.66012°
Mean motion
3.83578 °/min
Orbital period
93.85 mins
BSTAR
0.00040641
Loading maneuver chart data...
Computing Atmospheric mass density...
Loading historical data...
Loading historical data...
Loading historical data...
Loading historical data...
Loading historical data...
Loading historical data...
Loading historical data...

Documentation

Showing up to 5 results
|